CW0005 Weather Reports


time (UTC)temp
F
wind
direction
speed
knots
gust
knots
rain 1hr
in
rain 24hr
in
rain mn
in
humidity
%
barometer
mb
20260905041510 82 135 0.0 0.0 0.00 0.00 0.00 79 1013.6
20260905040014 82 135 0.0 0.0 0.00 0.00 0.00 78 1013.7
20260905034509 83 135 0.0 0.0 0.00 0.00 0.00 77 1013.5
20260905033005 83 300 0.0 0.0 0.00 0.00 0.00 76 1013.6
20260905031507 84 299 0.0 0.0 0.00 0.00 0.00 76 1013.6
20260905030007 84 299 0.0 0.0 0.00 0.00 0.00 75 1013.5
20260905024504 85 299 0.0 0.0 0.00 0.00 0.00 75 1013.6
20260905023008 85 299 0.0 0.0 0.00 0.00 0.00 74 1013.6
20260905021507 85 299 0.0 0.0 0.00 0.00 0.00 74 1013.4
20260905020006 86 299 0.0 0.0 0.00 0.00 0.00 74 1013.5
20260905014504 86 299 0.0 0.0 0.00 0.00 0.00 73 1013.3
20260905013006 86 299 0.0 0.0 0.00 0.00 0.00 72 1013.1
20260905011506 87 299 0.0 0.0 0.00 0.00 0.00 70 1012.9
20260905010018 88 299 0.0 0.0 0.00 0.00 0.00 69 1012.8
20260905004521 89 299 0.0 0.0 0.00 0.00 0.00 67 1012.8
20260905003026 90 299 0.0 0.0 0.00 0.00 0.00 65 1012.8
20260905001527 90 299 0.0 0.0 0.00 0.00 0.00 64 1012.7
20260905000025 91 299 0.0 0.0 0.00 0.00 0.00 62 1012.7
20260904234514 92 299 0.0 0.0 0.00 0.00 0.00 61 1012.7
20260904233007 92 293 0.0 0.9 0.00 0.00 0.00 59 1012.7
20260904231526 93 293 0.0 1.7 0.00 0.00 0.00 58 1012.6
20260904230032 94 67 0.0 1.7 0.00 0.00 0.00 57 1012.6
20260904224523 95 340 0.0 4.3 0.00 0.00 0.00 56 1012.3
20260904223011 95 235 0.0 1.7 0.00 0.00 0.00 55 1012.2
20260904221506 95 15 0.9 3.5 0.00 0.00 0.00 53 1012.3
20260904220008 96 330 0.9 2.6 0.00 0.00 0.00 54 1012.4
20260904214512 95 127 0.0 4.3 0.00 0.00 0.00 54 1012.4
20260904213007 95 103 0.0 2.6 0.00 0.00 0.00 55 1012.3
20260904211506 94 75 0.0 4.3 0.00 0.00 0.00 57 1012.3
20260904210004 93 11 0.9 5.2 0.00 0.00 0.00 60 1012.3
20260904204505 92 354 0.9 3.5 0.00 0.00 0.00 58 1012.4
20260904203004 92 114 0.9 4.3 0.00 0.00 0.00 61 1012.5
20260904201504 93 333 0.9 4.3 0.00 0.00 0.00 60 1012.8
20260904200003 94 19 0.9 3.5 0.00 0.00 0.00 57 1012.8
20260904194503 95 334 0.9 4.3 0.00 0.00 0.00 55 1013.0
20260904193009 95 7 0.9 6.1 0.00 0.00 0.00 58 1012.9
20260904191504 95 351 0.9 5.2 0.00 0.00 0.00 56 1012.7
20260904190004 94 9 0.0 5.2 0.00 0.00 0.00 59 1012.8
20260904184503 93 157 0.9 4.3 0.00 0.00 0.00 58 1012.8
20260904183004 93 306 0.0 5.2 0.00 0.00 0.00 60 1013.1
20260904181505 92 227 0.9 5.2 0.00 0.00 0.00 60 1013.1
20260904180004 91 187 0.9 6.1 0.00 0.00 0.00 61 1013.2
20260904174509 90 223 0.9 3.5 0.00 0.00 0.00 61 1013.4
20260904173011 89 313 0.9 7.0 0.00 0.00 0.00 64 1013.5
20260904171506 88 34 1.7 5.2 0.00 0.00 0.00 64 1013.4
20260904170012 88 330 0.9 4.3 0.00 0.00 0.00 66 1013.5
20260904164512 88 1 0.9 5.2 0.00 0.00 0.00 67 1013.4
20260904163007 87 358 0.9 4.3 0.00 0.00 0.00 66 1013.4
20260904161505 86 14 1.7 6.1 0.00 0.00 0.00 68 1013.5
20260904160012 85 4 0.9 4.3 0.00 0.00 0.00 71 1013.6
20260904154522 84 7 0.9 4.3 0.00 0.00 0.00 72 1013.4
20260904153020 83 344 0.9 2.6 0.00 0.00 0.00 72 1013.5
20260904151518 83 342 0.0 1.7 0.00 0.00 0.00 74 1013.5
20260904150027 82 329 0.9 4.3 0.00 0.00 0.00 75 1013.6
20260904144510 81 345 0.0 5.2 0.00 0.00 0.00 77 1013.3
20260904143020 80 135 0.0 4.3 0.00 0.00 0.00 80 1013.3
20260904141533 78 135 0.9 5.2 0.00 0.00 0.00 82 1013.3
20260904140046 77 196 0.0 2.6 0.00 0.00 0.00 84 1013.5
20260904134527 76 135 0.0 0.0 0.00 0.00 0.00 86 1013.3
20260904133006 75 135 0.0 0.0 0.00 0.00 0.00 87 1013.3
20260904131503 74 135 0.0 0.0 0.00 0.00 0.00 87 1013.4
20260904130004 74 135 0.0 0.0 0.00 0.00 0.00 87 1013.1
20260904124506 74 135 0.0 0.0 0.00 0.00 0.00 87 1013.0
20260904123006 73 135 0.0 0.0 0.00 0.00 0.00 87 1013.0
20260904121504 73 135 0.0 0.0 0.00 0.00 0.00 86 1012.9
20260904120010 73 135 0.0 0.0 0.00 0.00 0.00 86 1012.9
20260904114511 73 135 0.0 0.0 0.00 0.00 0.00 85 1012.8
20260904113009 73 135 0.0 0.0 0.00 0.00 0.00 85 1012.6
20260904111505 74 135 0.0 0.0 0.00 0.00 0.00 85 1012.4
20260904110006 74 135 0.0 0.0 0.00 0.00 0.00 84 1012.4
20260904104505 74 135 0.0 0.0 0.00 0.00 0.00 84 1012.3
20260904103005 74 135 0.0 0.0 0.00 0.00 0.00 84 1012.3
20260904101506 74 135 0.0 0.0 0.00 0.00 0.00 84 1012.2
20260904100008 74 135 0.0 0.0 0.00 0.00 0.00 84 1012.1
20260904094520 74 135 0.0 0.0 0.00 0.00 0.00 83 1012.0
20260904093008 75 135 0.0 0.0 0.00 0.00 0.00 82 1011.9
20260904091504 75 135 0.0 0.0 0.00 0.00 0.00 82 1012.0
20260904090006 75 135 0.0 0.0 0.00 0.00 0.00 81 1011.8
20260904084504 75 135 0.0 0.0 0.00 0.00 0.00 81 1011.7
20260904083004 76 135 0.0 0.0 0.00 0.00 0.00 81 1011.5
20260904081507 76 135 0.0 0.0 0.00 0.00 0.00 81 1011.5
20260904080010 76 135 0.0 0.0 0.00 0.00 0.00 80 1011.5
20260904074508 76 135 0.0 0.0 0.00 0.00 0.00 80 1011.7
20260904073028 77 135 0.0 0.0 0.00 0.00 0.00 79 1011.8
20260904071530 77 135 0.0 0.0 0.00 0.00 0.00 79 1011.8
20260904070015 77 135 0.0 0.0 0.00 0.00 0.00 79 1011.9
20260904064523 77 135 0.0 0.0 0.00 0.00 0.00 78 1011.9
20260904063026 77 135 0.0 0.0 0.00 0.00 0.00 78 1011.9
20260904061524 77 135 0.0 0.0 0.00 0.00 0.00 78 1012.0
20260904060012 78 135 0.0 0.0 0.00 0.00 0.00 78 1011.9
20260904054511 78 135 0.0 0.0 0.00 0.00 0.00 77 1011.9
20260904053017 78 135 0.0 0.0 0.00 0.00 0.00 76 1011.9
20260904051526 79 135 0.0 0.0 0.00 0.00 0.00 76 1011.9
20260904050039 79 135 0.0 0.0 0.00 0.00 0.00 75 1012.0
20260904044529 80 135 0.0 0.0 0.00 0.00 0.00 75 1012.0
20260904043015 80 135 0.0 0.0 0.00 0.00 0.00 74 1012.0